Retour au catalogue

FLOCK 4Q 31

ActifSciencePO
NORAD 58285·PAYLOAD·🇺🇸 United States

Lancé Nov 11, 2023 depuis Vandenberg Space Force Base

Loading…

Prochains Passages (prochaines 24 heures)

TLE

FraisSource: Space-Track

Époque: Sep 14, 2026, 00:05 UTC

1 58285U 23174AF  26257.00358691  .00342605  00000-0  14882-2 0  9994
2 58285  97.3824 353.8670 0006681 230.6304 129.4374 15.83925314159707

Suivez FLOCK 4Q 31 en temps réel avec AllMySat

Download on the App Store